RH
49 50 50 46 46 43 43 52 56 55 51 45 42 41 37 31 32 45 60 72 93 94 86 70 50 34 26 41 88 100 100 100 91 95 88 80 99 100
56 55 43 44 44 47 49 47 45 43 43 50 48 43 42 46 39 31 29 33 46 69 84 91 87 66 48 33 23 38 82 100 100 100 100 93 82 98
48 45 47 47 50 49 47 44 46 50 47 47 41 42 42 40 44 42 36 30 27 29 49 67 81 90 82 60 45 30 22 40 86 100 100 100 96 100
38 37 37 33 33 34 35 37 39 43 40 43 41 39 38 39 36 37 40 36 31 29 27 30 50 65 79 86 72 54 41 30 24 39 89 100 100 100
18 18 17 14 14 13 13 13 14 14 13 16 24 30 33 30 30 34 35 37 39 37 29 26 24 34 51 64 74 77 64 48 40 32 25 30 78 100
21 19 20 19 18 18 17 17 16 14 13 11 12 13 13 14 14 17 22 26 31 33 35 31 27 24 25 36 52 63 70 74 62 46 38 32 24 31
28 29 28 28 28 28 28 28 27 25 23 21 19 19 17 16 14 13 10 13 14 16 25 30 30 24 22 22 27 41 54 62 67 69 60 46 39 32
25 21 19 18 18 18 20 21 23 22 23 23 22 22 23 20 20 15 11 10 10 12 12 12 19 27 24 20 21 22 32 45 56 61 62 69 52 42
20 19 19 19 18 18 17 16 15 15 14 13 13 14 14 16 15 15 15 12 10 11 10 10 14 14 21 21 19 18 21 26 38 46 55 57 61 62
13 14 14 13 13 11 11 10 11 10 9 9 9 10 10 12 12 12 11 10 12 13 13 7 10 9 12 18 26 24 22 18 21 30 36 45 51 53
10 10 9 9 9 8 7 7 7 7 7 6 6 6 6 7 7 8 8 8 9 10 11 11 13 9 9 9 11 14 17 19 19 17 20 32 38 44
10 11 11 11 11 10 10 9 9 10 9 8 8 8 7 7 8 7 6 5 5 5 6 7 8 9 10 12 10 8 8 10 14 15 14 15 20 34
8 8 8 9 9 9 9 8 9 9 9 8 8 8 8 8 8 8 8 6 6 5 7 6 5 5 4 7 10 12 12 10 8 10 11 11 12 14
7 7 7 7 7 8 8 8 8 8 8 8 9 9 9 8 7 7 7 6 5 4 6 6 4 4 4 3 4 6 7 9 10 10 9 8 9 9
6 6 6 6 6 6 7 7 7 8 8 8 9 9 8 7 6 6 5 4 3 4 4 4 3 3 2 2 3 4 4 4 5 7 9 10 8 8
5 6 6 6 6 7 7 7 7 8 8 8 8 8 8 7 5 3 3 3 3 4 4 4 3 2 2 2 2 3 3 3 3 3 4 5 8 8
6 6 6 7 7 7 7 8 8 7 8 8 7 6 4 4 4 3 3 3 3 3 3 3 3 3 3 3 3 3 3 2 2 3 2 3 4 5
6 8 8 7 8 8 8 8 8 8 6 6 5 4 4 4 3 3 3 3 3 3 3 3 3 3 3 3 3 3 3 3 2 2 2 2 3 3
8 8 8 9 9 8 8 8 7 5 5 5 4 4 4 4 3 3 3 3 3 3 3 2 2 2 3 3 2 2 2 3 3 2 2 2 2 3
8 9 9 9 9 9 7 6 5 4 4 4 4 4 4 4 4 4 4 3 4 4 4 3 3 2 2 3 3 2 2 2 2 3 2 2 2 3
9 9 9 8 7 7 6 5 4 4 5 5 5 4 4 5 4 4 4 4 4 4 3 3 3 2 3 3 4 3 2 2 2 2 2 2 2 2
9 9 7 6 6 5 5 5 6 6 6 6 5 5 5 5 4 4 4 4 4 4 4 4 3 3 3 3 4 4 3 2 2 2 2 2 2 3
8 8 6 6 5 6 6 6 6 5 6 6 5 5 5 5 5 5 5 5 5 5 5 4 3 3 3 3 4 4 3 2 2 2 2 2 2 2
Wind_Speed
124 126 127 126 126 126 125 127 128 127 127 128 127 125 122 121 124 129 133 132 130 128 126 124 122 119 118 116 114 115 111 110 109 107 105 102 97 95
133 133 133 132 132 132 134 134 134 132 130 133 134 134 133 132 132 128 127 128 133 136 135 132 130 128 125 122 121 119 118 116 112 111 110 107 104 102
138 137 138 138 139 139 139 140 139 139 139 138 138 138 140 141 141 141 137 134 133 133 137 140 139 136 134 131 128 126 123 121 120 120 115 112 110 109
137 139 140 139 139 141 142 144 144 146 147 146 146 145 143 143 144 147 147 145 140 137 137 141 143 144 142 139 137 134 131 128 126 123 122 122 118 114
125 123 123 122 122 124 124 125 126 130 130 135 139 144 145 146 147 148 149 150 151 151 147 142 144 147 148 148 146 143 140 137 133 130 128 126 123 125
115 114 115 115 115 115 116 116 117 118 118 119 121 124 129 135 140 143 148 153 155 156 156 156 151 149 151 152 152 151 149 146 143 139 135 132 129 125
109 109 109 110 111 112 112 113 113 113 113 114 115 116 117 122 127 132 135 140 145 149 155 162 163 157 152 153 156 157 156 154 151 149 144 140 136 132
116 118 119 120 121 122 122 123 124 124 124 124 123 122 121 122 123 125 127 131 133 139 147 147 156 164 162 158 154 158 161 160 158 156 153 149 145 141
122 122 123 123 124 123 125 127 128 129 131 133 133 132 132 131 130 128 128 129 128 134 140 140 145 151 158 161 160 157 158 163 164 162 160 157 154 150
118 118 118 119 120 121 121 121 121 123 124 126 124 125 128 130 133 134 134 131 127 130 136 132 137 143 146 154 159 161 161 159 161 165 164 163 161 158
111 111 111 111 111 112 110 107 108 109 111 112 112 112 115 118 121 125 127 130 129 133 135 132 130 139 143 146 150 156 159 160 161 160 163 166 165 164
99 100 102 102 102 103 103 102 100 104 105 104 103 103 104 104 107 112 113 117 119 122 126 127 130 136 135 136 141 147 152 158 163 164 162 161 164 169
93 94 95 95 94 95 96 95 94 97 98 97 96 97 99 100 103 106 108 109 109 109 112 119 123 127 128 129 139 142 144 145 149 157 162 163 161 161
90 89 89 89 89 90 90 90 90 91 89 90 90 91 94 96 98 100 103 105 104 103 108 113 114 117 119 120 122 138 141 143 143 143 146 152 157 159
81 82 83 84 84 83 84 84 84 83 82 82 83 85 89 90 93 95 97 96 95 96 99 107 108 109 109 109 113 120 131 132 137 141 142 141 143 149
75 75 75 75 76 77 78 76 76 77 78 77 77 79 82 86 87 89 86 87 84 87 94 101 102 100 99 98 102 108 114 121 125 129 136 141 142 141
69 68 68 69 71 72 68 70 73 72 70 71 72 75 77 79 79 80 78 78 76 81 86 90 92 91 91 95 93 99 108 108 117 119 123 125 130 135
61 63 65 65 64 66 66 66 65 66 66 66 67 69 70 71 71 70 69 69 69 73 77 81 81 81 84 86 88 95 100 102 105 108 110 111 115 124
58 61 60 60 61 62 61 60 61 61 61 62 62 63 62 64 62 63 63 61 63 67 68 71 72 73 74 75 87 83 87 94 97 101 103 103 105 112
55 54 56 57 56 55 55 56 57 55 54 56 56 56 56 57 58 58 57 56 56 59 62 64 66 66 63 71 77 77 79 92 92 94 97 97 94 101
51 52 50 50 50 50 52 50 50 48 49 50 51 50 50 52 54 52 52 53 52 55 59 61 61 58 58 60 67 75 79 80 84 82 86 87 88 91
46 45 45 46 45 46 44 44 43 44 45 45 46 46 45 47 48 48 49 48 48 49 51 55 55 51 51 54 62 67 71 75 73 76 79 77 78 80
39 42 42 40 39 38 39 39 39 39 39 40 41 42 43 43 42 42 43 43 45 46 48 50 49 48 50 53 56 61 65 69 68 65 70 75 72 75
Wind_Direction
269 269 268 267 265 264 262 261 260 260 259 259 258 259 259 256 253 252 250 249 251 251 251 249 248 248 248 247 245 244 243 245 246 245 247 247 246 245
270 271 270 268 266 264 264 263 262 260 258 257 257 257 258 259 258 254 251 251 251 249 249 249 250 248 247 247 247 246 245 242 241 243 244 245 245 245
272 270 268 267 267 265 265 263 262 262 260 258 259 257 257 257 257 256 254 251 249 250 249 248 248 248 248 247 246 246 246 245 244 242 240 243 244 243
273 271 270 268 267 265 264 263 262 262 261 260 260 258 257 257 256 255 256 255 252 249 248 248 247 246 246 247 247 246 245 245 245 245 244 242 240 241
272 271 270 269 267 266 265 264 263 262 261 259 257 257 257 257 256 254 253 254 255 254 251 248 247 245 245 245 246 246 246 245 245 244 244 244 242 239
272 271 270 270 269 268 267 266 265 264 262 259 258 256 255 254 254 253 253 252 252 252 253 252 247 244 244 244 244 245 245 245 245 244 244 244 244 243
271 271 270 270 269 268 267 266 265 264 263 261 259 257 256 255 253 253 252 252 252 250 250 251 251 249 245 242 243 243 243 244 244 244 244 243 243 244
271 271 271 270 268 267 265 264 262 262 261 260 259 258 257 255 254 252 251 250 248 251 250 249 250 250 249 247 243 241 242 242 242 243 243 243 244 243
274 273 272 271 269 268 266 265 264 263 262 260 259 258 258 257 257 255 253 251 249 249 250 249 249 248 249 249 248 246 242 241 242 241 242 242 242 243
274 273 272 271 269 268 266 266 265 264 263 262 261 260 259 257 258 258 257 256 255 252 251 250 249 248 246 247 248 248 246 244 242 242 241 241 242 242
274 273 272 271 270 269 268 266 265 265 264 263 262 260 259 258 258 257 257 256 255 254 253 252 251 250 249 248 247 246 246 246 245 242 241 241 241 241
274 272 272 270 269 268 268 267 266 265 264 263 262 261 260 259 258 258 257 256 256 254 254 253 251 251 250 251 251 250 248 247 245 245 244 241 240 240
274 273 272 270 269 268 267 266 265 263 263 263 263 262 260 259 258 258 258 257 256 255 253 253 252 251 250 246 249 250 250 249 249 248 247 246 244 239
274 273 272 271 269 268 267 266 265 264 264 264 264 263 261 260 259 258 258 257 256 255 254 254 252 252 250 249 245 249 248 248 248 247 247 248 248 247
273 272 270 270 269 268 267 266 265 265 264 263 263 263 262 261 260 259 258 257 257 256 255 255 254 252 251 250 248 246 249 248 247 247 247 247 246 247
271 270 270 269 268 267 265 265 266 265 264 264 263 263 262 261 259 259 259 259 257 255 253 253 253 253 252 249 249 248 247 248 247 246 245 245 245 246
273 273 271 269 267 267 268 267 266 267 267 266 264 262 261 261 261 260 260 259 257 255 254 253 253 253 252 251 248 247 248 245 247 245 245 244 245 245
274 271 268 267 268 268 267 268 269 268 267 266 264 263 263 263 262 262 260 259 257 255 254 254 253 251 250 250 248 246 246 247 247 247 246 245 243 244
268 266 267 267 267 268 269 269 269 267 267 266 265 264 264 264 263 262 260 258 256 255 255 255 253 251 250 250 250 246 248 247 246 246 245 243 242 243
267 267 266 268 270 270 269 266 265 266 265 265 265 264 263 263 262 261 261 260 259 257 256 255 253 251 249 248 250 249 243 247 245 244 245 244 241 241
268 268 270 271 269 267 267 268 267 267 265 263 264 264 263 262 263 263 262 260 259 258 257 257 256 254 251 248 248 248 247 244 247 246 245 245 242 240
270 272 270 267 268 268 268 267 266 265 264 264 264 265 265 263 262 261 260 261 259 259 259 260 259 256 252 247 247 248 248 248 244 245 247 244 242 240
271 268 268 268 267 267 266 266 266 265 265 264 263 263 262 262 265 266 266 263 261 258 256 258 258 256 253 249 247 249 249 249 247 242 243 245 242 239